Regional Weather Roundup
Issued by NWS Mt. Holly, NJ

Home | Current Version | Previous Version | Text Only | Print | Product List | Glossary On
Versions: 1 2 3 4 5 6 7 8 9 10 11 12 13 14 15 16 17 18 19 20 21 22 23 24 25 26 27 28 29 30 31 32 33 34 35 36 37 38 39 40 41 42 43 44 45 46 47 48 49 50
196
ASUS41 KPHI 202312
RWRPHI

REGIONAL WEATHER ROUNDUP
NATIONAL WEATHER SERVICE MOUNT HOLLY NJ
600 PM EST MON FEB 20 2017

NOTE:  "FAIR" INDICATES FEW OR NO CLOUDS BELOW 12,000 FEET WITH NO
SIGNIFICANT WEATHER AND/OR OBSTRUCTIONS TO VISIBILITY.

 * = STATION DOES NOT REPORT PRECIPITATION (E.G. RAIN, SNOW, ETC.)
        OR FOG.

NJZ015>026-210000-
SOUTHERN NEW JERSEY

CITY           SKY/WX    TMP DP  RH WIND       PRES   REMARKS
POMONA         CLEAR     49  24  37 N7        30.23R
WILDWOOD*      PTCLDY    52  26  36 N3        30.24R
MILLVILLE      CLEAR     50  26  39 N7        30.23R
WRIGHTSTOWN    CLEAR     47  20  34 NW10      30.21R
MOUNT HOLLY    CLEAR     51  18  27 N5        30.24R
TRENTON        CLEAR     51  12  21 N7        30.24R

$$
NJZ001>014-210000-
NORTHERN NEW JERSEY

CITY           SKY/WX    TMP DP  RH WIND       PRES   REMARKS
SUSSEX         CLEAR     45  10  24 N5        30.26R
ANDOVER*         N/A     44   8  23 N7        30.26R
MORRISTOWN     PTCLDY    48   9  20 N5        30.25R
NEWARK         PTCLDY    51   5  15 NW14      30.25R
TETERBORO      CLEAR     49  11  21 N10G20    30.25R
CALDWELL       CLEAR     49   6  17 VRB6      30.26R
SOMERVILLE     CLEAR     49  10  20 CALM      30.24R
ALLAIRE*       CLEAR     49  13  23 N10       30.24R
TOMS RIVER*    CLEAR     46  23  40 N5        30.24R

$$
PAZ043-044-047-054-055-060>062-066>071-210000-
EASTERN PENNSYLVANIA

CITY           SKY/WX    TMP DP  RH WIND       PRES   REMARKS
PHILADELPHIA   PTCLDY    54  17  23 N14G22    30.24R
NORTH PHILA    CLEAR     52  18  26 N9        30.25R
BLUE BELL*     CLEAR     48  21  34 N3        30.24R
DOYLESTOWN     CLEAR     50  18  28 N5        30.24R
QUAKERTOWN*    CLEAR     48  18  29 N9        30.26R
PERKASIE*      FAIR      48  16  27 N7        30.25R
POTTSTOWN      CLEAR     49  16  26 N8        30.26R
LANCASTER      CLEAR     50  24  36 N6        30.25R
COATESVILLE    CLEAR     50  25  37 NW7       30.25R
READING        CLEAR     52  25  35 N5        30.25R
ALLENTOWN      CLEAR     47  17  30 N10       30.26R
MOUNT POCONO   CLEAR     38  14  37 NW8       30.21R WCI  32
HAZLETON       CLEAR     41   9  26 N5        30.27R
LEHIGHTON      FAIR      46  10  23 CALM      30.27R
WILKES BARRE   CLEAR     42  14  32 N10       30.27R

$$
DEZALL-MDZ008-012-015-019-020-210000-
DELAWARE AND EASTERN MARYLAND

CITY           SKY/WX    TMP DP  RH WIND       PRES   REMARKS
WILMINGTON     CLEAR     52  27  38 N8        30.24R
DOVER          CLEAR     52  35  53 NW6       30.22R
GEORGETOWN     CLEAR     54  32  43 N3        30.23R
EASTON         PTCLDY    54  32  43 NE6       30.27R
ABERDEEN       CLEAR     53  28  37 CALM      30.25R
PATUXENT       CLEAR     54  35  48 N5        30.23R
OCEAN CITY     CLEAR     53  30  41 N9        30.23R
WALLOPS ISLAND CLEAR     48  38  68 CALM      30.23R
SALISBURY      CLEAR     54  33  45 N7        30.22R

$$
PAZ001-021-NYZ056-072-MDZ011-DCZ001-210000-
OTHER NEARBY LOCATIONS

CITY           SKY/WX    TMP DP  RH WIND       PRES   REMARKS
HARRISBURG     MOCLDY    52  23  32 NE7       30.25R
STATE COLLEGE  CLEAR     50  27  40 E3        30.24R
WILLIAMSPORT   CLEAR     50  18  28 N6        30.27R
BINGHAMTON     CLEAR     34  16  47 N9        30.28R WCI  27
NEW YORK CITY  CLEAR     49  11  21 NE15G23   30.28R
BALTIMORE      PTCLDY    57  28  33 VRB6      30.23R
WASHINGTON DC  MOCLDY    59  34  39 NE9       30.22R

$$




USA.gov is the U.S. government's official web portal to all federal, state and local government web resources and services.